Location: Aalen
(48.8330°N, 10.1000°E)
Time: 09:22:15
(UTC+01:00)

N. Korean satellite - Pass Details

Date: 08 December 2022
Orbit: 407 x 442 km, 97.3° (Epoch: 04 February)

Event Time Altitude Azimuth Distance (km) Brightness Sun altitude
Rises 06:33:41 0° 2° (N) 2,511 10.0 -13.4°
Reaches altitude 10° 06:35:59 10° 349° (N) 1,623 8.9 -13.0°
Maximum altitude 06:38:52 25° 293° (WNW) 974 7.5 -12.6°
Drops below altitude 10° 06:41:43 10° 236° (WSW) 1,589 8.8 -12.2°
Sets 06:43:56 0° 223° (SW) 2,445 9.9 -11.8°
